Find Starlink 30839

NORAD ID: 58209 Int'l Des: 2023-170 Owner: SPXS Country: US Constellation: starlink operational
LEOCIRCULAR

リアルタイム位置

3D地球を読み込み中...

Starlink 30839について

説明を読み込み中...

次回通過

Passes for default location (London). Set your location on the main map for personalized predictions.

高度履歴

Loading altitude history...

軌道要素

1 58209U 23170D 26121.39445156 .00004256 00000-0 16403-3 0 9990
2 58209 42.9986 256.2610 0001015 272.7470 87.3265 15.27589474138366
Epoch: May 1, 2026 • Age: 7 hours

現在のステータス

高度 495.1 km
速度 7.62 km/s
衛星直下点 -41.70°S, 33.83°E
打ち上げ日 Nov 4, 2023
運用期間 2.4 years
タイプ internet

技術仕様

分類 Payload
質量 730.00 kg
乾燥質量 700.00 kg
総質量 730.00 kg
長さ 0.30 m
直径 4.10 m
スパン 29.00 m
形状 Box + pan
製造者 SPXS
バスタイプ Starlink V2M
フェーズステータス In Orbit
所有者/国 SPXS/US

Most Searched